map of ASK home
ASK - Airport
Location
City:  Yamoussoukro, Lacs, Côte d'Ivoire (Ivory Coast)
ICAO:DIYO
IATA:ASK

Details
Type:Airport (Aerodrome, Airfield)
Use:Public/Civil, International (customs port of entry)
Latitude:6°54'11"N (6.903167)
Longitude:5°21'56"W (-5.365580)
Datum:WGS 1984
Elevation:699 ft (213 m)
Variation:4.77°W (WMM2015 magnetic declination)
0.11° annual change
Runways:1
Longest:9843 × 148 ft (3000 × 45 m), paved

Time
Time Zone:UTC+0
Local Time:

Weather
METAR:DIYO 251700Z 00000KT 9999 FEW016 36/21 Q1008 NOSIG
TAF:DIYO 251700Z 2518/2618 22004KT 8000 SCT014 PROB30
TEMPO 2519/2522 TS SCT015 FEW025CB PROB30
TEMPO 2520/2522 4000 TSRA BKN012 FEW025CB PROB30 2605/2608 4000 BR
TEMPO 2614/2618 BKN015

Related Locations
Nearby:
Farthest:FUN: 12116 mi / 19498 km
Funafuti Atoll [Intl], TV

Find:

   beyond  
but within

Other Information
Maps:
NOTAMs:
Links:
Sources:

  
flag of Côte d'Ivoire (Ivory Coast)   

Sectional Chart

Flight Planning
at skyvector.com

Satellite Image

Google Maps Satellite view

 

Copyright © 2004-2017 Karl L. Swartz. All rights reserved.
The Great Circle Mapper name and logo are trademarks of the Great Circle Mapper.
All other trademarks mentioned herein belong to their respective owners.
Please see credits for attibutions and further copyright information.

  Follow gcmap on Facebook Follow gcmap on Twitter Follow gcmap on Google+ GCmap on LinkedIn

hCard Microformat

Geo Microformat